contact:dominique.lefevre@mio.osupytheas.fr, maurice.libes@osupytheas.fr, didier.mallarino@osupytheas.fr
Project:EMSO http://www.emso-fr.org/EMSO-France
Depth: 2436.0 m
Title:EMSO Ligure Ouest : Data MII capteur CSTAR
DateTime,Latitude,Longitude,Instrument_Serial,Reference_Counts,Signal_Counts,Corrected_Signal_raw_counts,Calculated_Beam_c_inverse_meters,Internal_thermistor_counts
DateTime,Latitude,Longitude,Instrument_Serial,Reference_Counts,Signal_Counts,Corrected_Signal_raw_counts,Calculated_Beam_c_inverse_meters,Internal_thermistor_counts
2019-12-08T00:01:31,42.805,6.029,CST-1368DR,7205,10096,15289,0.085,551
2019-12-08T00:04:33,42.805,6.029,CST-1368DR,7205,10098,15293,0.084,551
2019-12-08T00:07:34,42.805,6.029,CST-1368DR,7205,10099,15295,0.083,551
2019-12-08T00:10:36,42.805,6.029,CST-1368DR,7205,10097,15291,0.084,551
2019-12-08T00:13:38,42.805,6.029,CST-1368DR,7205,10097,15292,0.084,551
2019-12-08T00:16:39,42.805,6.029,CST-1368DR,7205,10099,15295,0.083,551
2019-12-08T00:19:41,42.805,6.029,CST-1368DR,7205,10099,15295,0.083,551
2019-12-08T00:22:42,42.805,6.029,CST-1368DR,7205,10098,15293,0.084,551
2019-12-08T00:25:44,42.805,6.029,CST-1368DR,7205,10098,15293,0.084,551
2019-12-08T00:28:46,42.805,6.029,CST-1368DR,7205,10095,15289,0.085,551
2019-12-08T00:31:48,42.805,6.029,CST-1368DR,7205,10098,15292,0.084,551
2019-12-08T00:34:49,42.805,6.029,CST-1368DR,7205,10098,15293,0.084,551
2019-12-08T00:37:51,42.805,6.029,CST-1368DR,7205,10098,15293,0.084,551
2019-12-08T00:40:52,42.805,6.029,CST-1368DR,7205,10098,15293,0.084,551
2019-12-08T00:43:54,42.805,6.029,CST-1368DR,7205,10098,15293,0.084,551
2019-12-08T00:46:56,42.805,6.029,CST-1368DR,7205,10095,15289,0.085,551
2019-12-08T00:49:57,42.805,6.029,CST-1368DR,7205,10097,15292,0.084,551
2019-12-08T00:52:59,42.805,6.029,CST-1368DR,7205,10097,15292,0.084,550
2019-12-08T00:56:01,42.805,6.029,CST-1368DR,7205,10098,15292,0.084,551
2019-12-08T00:59:02,42.805,6.029,CST-1368DR,7205,10098,15293,0.084,551
2019-12-08T01:02:04,42.805,6.029,CST-1368DR,7205,10098,15293,0.084,551
2019-12-08T01:05:05,42.805,6.029,CST-1368DR,7205,10097,15291,0.084,551
2019-12-08T01:08:07,42.805,6.029,CST-1368DR,7205,10098,15293,0.084,550
2019-12-08T01:11:09,42.805,6.029,CST-1368DR,7205,10095,15289,0.085,551
2019-12-08T01:14:10,42.805,6.029,CST-1368DR,7205,10094,15287,0.085,551
2019-12-08T01:17:12,42.805,6.029,CST-1368DR,7205,10096,15289,0.085,551
2019-12-08T01:20:13,42.805,6.029,CST-1368DR,7205,10097,15291,0.084,551
2019-12-08T01:23:15,42.805,6.029,CST-1368DR,7205,10099,15294,0.083,551
2019-12-08T01:26:17,42.805,6.029,CST-1368DR,7205,10097,15291,0.084,551
2019-12-08T01:29:18,42.805,6.029,CST-1368DR,7205,10098,15293,0.084,551
2019-12-08T01:32:20,42.805,6.029,CST-1368DR,7205,10096,15290,0.084,551
2019-12-08T01:35:22,42.805,6.029,CST-1368DR,7205,10097,15292,0.084,551
2019-12-08T01:38:23,42.805,6.029,CST-1368DR,7205,10094,15286,0.085,551
2019-12-08T01:41:25,42.805,6.029,CST-1368DR,7205,10097,15292,0.084,551
2019-12-08T01:44:26,42.805,6.029,CST-1368DR,7205,10097,15292,0.084,551
2019-12-08T01:47:28,42.805,6.029,CST-1368DR,7205,10096,15290,0.084,551
2019-12-08T01:50:30,42.805,6.029,CST-1368DR,7205,10097,15292,0.084,551
2019-12-08T01:53:31,42.805,6.029,CST-1368DR,7205,10098,15293,0.084,551
2019-12-08T01:56:33,42.805,6.029,CST-1368DR,7205,10098,15292,0.084,551
2019-12-08T01:59:35,42.805,6.029,CST-1368DR,7205,10098,15292,0.084,551
2019-12-08T02:02:36,42.805,6.029,CST-1368DR,7205,10098,15293,0.084,551
2019-12-08T02:05:38,42.805,6.029,CST-1368DR,7205,10097,15291,0.084,551
2019-12-08T02:08:39,42.805,6.029,CST-1368DR,7205,10097,15291,0.084,551
2019-12-08T02:11:41,42.805,6.029,CST-1368DR,7205,10097,15291,0.084,551
2019-12-08T02:14:43,42.805,6.029,CST-1368DR,7205,10097,15292,0.084,551
2019-12-08T02:17:44,42.805,6.029,CST-1368DR,7205,10096,15290,0.084,551
2019-12-08T02:20:46,42.805,6.029,CST-1368DR,7205,10096,15289,0.085,551
2019-12-08T02:23:48,42.805,6.029,CST-1368DR,7205,10097,15291,0.084,551
2019-12-08T02:26:49,42.805,6.029,CST-1368DR,7205,10096,15290,0.084,551
2019-12-08T02:29:51,42.805,6.029,CST-1368DR,7205,10097,15291,0.084,551
2019-12-08T02:32:52,42.805,6.029,CST-1368DR,7205,10096,15290,0.084,551
2019-12-08T02:35:54,42.805,6.029,CST-1368DR,7205,10096,15290,0.084,551
2019-12-08T02:38:56,42.805,6.029,CST-1368DR,7205,10096,15290,0.084,551
2019-12-08T02:41:57,42.805,6.029,CST-1368DR,7205,10095,15289,0.085,551
2019-12-08T02:44:59,42.805,6.029,CST-1368DR,7205,10097,15291,0.084,551
2019-12-08T02:48:01,42.805,6.029,CST-1368DR,7205,10094,15287,0.085,551
2019-12-08T02:51:02,42.805,6.029,CST-1368DR,7204,10093,15287,0.085,551
2019-12-08T02:54:04,42.805,6.029,CST-1368DR,7205,10094,15287,0.085,551
2019-12-08T02:57:05,42.805,6.029,CST-1368DR,7205,10095,15289,0.085,551
2019-12-08T03:00:07,42.805,6.029,CST-1368DR,7204,10097,15294,0.083,551
2019-12-08T03:03:09,42.805,6.029,CST-1368DR,7205,10096,15290,0.084,551
2019-12-08T03:06:10,42.805,6.029,CST-1368DR,7204,10096,15292,0.084,551
2019-12-08T03:09:12,42.805,6.029,CST-1368DR,7204,10095,15290,0.084,551
2019-12-08T03:12:14,42.805,6.029,CST-1368DR,7204,10096,15291,0.084,551
2019-12-08T03:15:15,42.805,6.029,CST-1368DR,7204,10096,15292,0.084,551
2019-12-08T03:18:17,42.805,6.029,CST-1368DR,7204,10096,15292,0.084,551
2019-12-08T03:21:18,42.805,6.029,CST-1368DR,7204,10095,15290,0.084,551
2019-12-08T03:24:20,42.805,6.029,CST-1368DR,7205,10096,15290,0.084,551
2019-12-08T03:27:22,42.805,6.029,CST-1368DR,7204,10097,15294,0.083,551
2019-12-08T03:30:23,42.805,6.029,CST-1368DR,7204,10097,15293,0.084,551
2019-12-08T03:33:25,42.805,6.029,CST-1368DR,7204,10098,15295,0.083,551
2019-12-08T03:36:27,42.805,6.029,CST-1368DR,7204,10097,15294,0.083,551
2019-12-08T03:39:28,42.805,6.029,CST-1368DR,7204,10097,15293,0.084,551
2019-12-08T03:42:30,42.805,6.029,CST-1368DR,7204,10096,15292,0.084,551
2019-12-08T03:45:31,42.805,6.029,CST-1368DR,7204,10098,15294,0.083,551
2019-12-08T03:48:33,42.805,6.029,CST-1368DR,7204,10098,15294,0.083,551
2019-12-08T03:51:35,42.805,6.029,CST-1368DR,7204,10098,15295,0.083,551
2019-12-08T03:54:37,42.805,6.029,CST-1368DR,7204,10099,15296,0.083,551
2019-12-08T03:57:38,42.805,6.029,CST-1368DR,7204,10096,15292,0.084,551
2019-12-08T04:00:40,42.805,6.029,CST-1368DR,7204,10097,15293,0.084,551
2019-12-08T04:03:41,42.805,6.029,CST-1368DR,7204,10098,15294,0.083,551
2019-12-08T04:06:43,42.805,6.029,CST-1368DR,7204,10098,15295,0.083,551
2019-12-08T04:09:45,42.805,6.029,CST-1368DR,7204,10095,15291,0.084,551
2019-12-08T04:12:47,42.805,6.029,CST-1368DR,7204,10098,15295,0.083,551
2019-12-08T04:15:48,42.805,6.029,CST-1368DR,7204,10097,15293,0.084,550
2019-12-08T04:18:50,42.805,6.029,CST-1368DR,7204,10096,15292,0.084,551
2019-12-08T04:21:51,42.805,6.029,CST-1368DR,7204,10093,15288,0.085,551
2019-12-08T04:24:53,42.805,6.029,CST-1368DR,7204,10098,15295,0.083,551
2019-12-08T04:27:55,42.805,6.029,CST-1368DR,7204,10097,15293,0.084,551
2019-12-08T04:30:56,42.805,6.029,CST-1368DR,7204,10095,15290,0.084,551
2019-12-08T04:33:58,42.805,6.029,CST-1368DR,7204,10096,15292,0.084,551
2019-12-08T04:37:00,42.805,6.029,CST-1368DR,7204,10097,15293,0.084,551
2019-12-08T04:40:01,42.805,6.029,CST-1368DR,7204,10096,15291,0.084,551
2019-12-08T04:43:04,42.805,6.029,CST-1368DR,7204,10097,15293,0.084,551
2019-12-08T04:46:05,42.805,6.029,CST-1368DR,7204,10096,15292,0.084,551
2019-12-08T04:49:07,42.805,6.029,CST-1368DR,7204,10096,15292,0.084,551
2019-12-08T04:52:09,42.805,6.029,CST-1368DR,7204,10095,15290,0.084,551
2019-12-08T04:55:10,42.805,6.029,CST-1368DR,7204,10096,15292,0.084,551
2019-12-08T04:58:12,42.805,6.029,CST-1368DR,7204,10093,15287,0.085,551
2019-12-08T05:01:14,42.805,6.029,CST-1368DR,7204,10096,15292,0.084,551
2019-12-08T05:04:15,42.805,6.029,CST-1368DR,7204,10098,15295,0.083,551
2019-12-08T05:07:17,42.805,6.029,CST-1368DR,7204,10098,15295,0.083,551
2019-12-08T05:10:19,42.805,6.029,CST-1368DR,7204,10098,15295,0.083,551
2019-12-08T05:13:20,42.805,6.029,CST-1368DR,7204,10098,15295,0.083,551
2019-12-08T05:16:22,42.805,6.029,CST-1368DR,7204,10096,15292,0.084,550
2019-12-08T05:19:23,42.805,6.029,CST-1368DR,7204,10097,15293,0.084,551
2019-12-08T05:22:25,42.805,6.029,CST-1368DR,7204,10096,15292,0.084,551
2019-12-08T05:25:27,42.805,6.029,CST-1368DR,7204,10097,15293,0.084,551
2019-12-08T05:28:28,42.805,6.029,CST-1368DR,7204,10095,15290,0.084,551
2019-12-08T05:31:30,42.805,6.029,CST-1368DR,7204,10095,15290,0.084,551
2019-12-08T05:34:32,42.805,6.029,CST-1368DR,7204,10097,15293,0.084,550
2019-12-08T05:37:33,42.805,6.029,CST-1368DR,7204,10096,15292,0.084,551
2019-12-08T05:40:35,42.805,6.029,CST-1368DR,7204,10098,15295,0.083,551
2019-12-08T05:43:36,42.805,6.029,CST-1368DR,7204,10094,15289,0.085,551
2019-12-08T05:46:38,42.805,6.029,CST-1368DR,7204,10091,15284,0.086,550
2019-12-08T05:49:40,42.805,6.029,CST-1368DR,7204,10096,15292,0.084,551
2019-12-08T05:52:41,42.805,6.029,CST-1368DR,7204,10096,15292,0.084,551
2019-12-08T05:55:43,42.805,6.029,CST-1368DR,7204,10096,15292,0.084,551
2019-12-08T05:58:44,42.805,6.029,CST-1368DR,7204,10095,15290,0.084,551
2019-12-08T06:01:46,42.805,6.029,CST-1368DR,7204,10096,15292,0.084,551
2019-12-08T06:04:48,42.805,6.029,CST-1368DR,7204,10095,15291,0.084,551
2019-12-08T06:07:49,42.805,6.029,CST-1368DR,7204,10095,15290,0.084,551
2019-12-08T06:10:51,42.805,6.029,CST-1368DR,7204,10095,15291,0.084,551
2019-12-08T06:13:53,42.805,6.029,CST-1368DR,7204,10094,15289,0.085,551
2019-12-08T06:16:54,42.805,6.029,CST-1368DR,7204,10095,15291,0.084,551
2019-12-08T06:19:56,42.805,6.029,CST-1368DR,7204,10095,15290,0.084,551
2019-12-08T06:22:57,42.805,6.029,CST-1368DR,7204,10095,15290,0.084,551
2019-12-08T06:25:59,42.805,6.029,CST-1368DR,7204,10096,15292,0.084,551
2019-12-08T06:29:01,42.805,6.029,CST-1368DR,7204,10096,15291,0.084,551
2019-12-08T06:32:02,42.805,6.029,CST-1368DR,7204,10095,15291,0.084,551
2019-12-08T06:35:04,42.805,6.029,CST-1368DR,7204,10095,15290,0.084,551
2019-12-08T06:38:05,42.805,6.029,CST-1368DR,7204,10094,15289,0.085,551
2019-12-08T06:41:07,42.805,6.029,CST-1368DR,7204,10094,15288,0.085,551
2019-12-08T06:44:09,42.805,6.029,CST-1368DR,7204,10095,15290,0.084,551
2019-12-08T06:47:10,42.805,6.029,CST-1368DR,7204,10093,15287,0.085,550
2019-12-08T06:50:12,42.805,6.029,CST-1368DR,7204,10095,15291,0.084,551
2019-12-08T06:53:14,42.805,6.029,CST-1368DR,7203,10094,15291,0.084,551
2019-12-08T06:56:15,42.805,6.029,CST-1368DR,7203,10095,15292,0.084,551
2019-12-08T06:59:17,42.805,6.029,CST-1368DR,7203,10095,15293,0.084,550
2019-12-08T07:02:18,42.805,6.029,CST-1368DR,7203,10096,15294,0.083,551
2019-12-08T07:05:20,42.805,6.029,CST-1368DR,7203,10095,15292,0.084,551
2019-12-08T07:08:22,42.805,6.029,CST-1368DR,7203,10095,15292,0.084,551
2019-12-08T07:11:23,42.805,6.029,CST-1368DR,7203,10095,15292,0.084,551
2019-12-08T07:14:25,42.805,6.029,CST-1368DR,7203,10094,15291,0.084,551
2019-12-08T07:17:27,42.805,6.029,CST-1368DR,7203,10094,15290,0.084,551
2019-12-08T07:20:28,42.805,6.029,CST-1368DR,7203,10094,15291,0.084,551
2019-12-08T07:23:30,42.805,6.029,CST-1368DR,7203,10092,15288,0.085,551
2019-12-08T07:26:31,42.805,6.029,CST-1368DR,7203,10095,15293,0.084,551
2019-12-08T07:29:33,42.805,6.029,CST-1368DR,7203,10093,15289,0.085,551
2019-12-08T07:32:35,42.805,6.029,CST-1368DR,7203,10093,15289,0.085,551
2019-12-08T07:35:36,42.805,6.029,CST-1368DR,7203,10094,15290,0.084,551
2019-12-08T07:38:38,42.805,6.029,CST-1368DR,7203,10093,15289,0.085,551
2019-12-08T07:41:39,42.805,6.029,CST-1368DR,7203,10094,15291,0.084,551
2019-12-08T07:44:41,42.805,6.029,CST-1368DR,7203,10095,15293,0.084,551
2019-12-08T07:47:43,42.805,6.029,CST-1368DR,7203,10095,15292,0.084,551
2019-12-08T07:50:44,42.805,6.029,CST-1368DR,7203,10095,15292,0.084,551
2019-12-08T07:53:46,42.805,6.029,CST-1368DR,7203,10096,15294,0.083,551
2019-12-08T07:56:48,42.805,6.029,CST-1368DR,7203,10095,15292,0.084,551
2019-12-08T07:59:49,42.805,6.029,CST-1368DR,7203,10095,15292,0.084,551
2019-12-08T08:02:51,42.805,6.029,CST-1368DR,7203,10095,15292,0.084,551
2019-12-08T08:05:52,42.805,6.029,CST-1368DR,7203,10095,15292,0.084,551
2019-12-08T08:08:54,42.805,6.029,CST-1368DR,7203,10095,15292,0.084,551
2019-12-08T08:11:56,42.805,6.029,CST-1368DR,7203,10095,15292,0.084,551
2019-12-08T08:14:57,42.805,6.029,CST-1368DR,7203,10092,15287,0.085,551
2019-12-08T08:17:59,42.805,6.029,CST-1368DR,7203,10094,15290,0.084,551
2019-12-08T08:21:00,42.805,6.029,CST-1368DR,7203,10092,15288,0.085,551
2019-12-08T08:24:02,42.805,6.029,CST-1368DR,7203,10094,15291,0.084,551
2019-12-08T08:27:04,42.805,6.029,CST-1368DR,7203,10095,15292,0.084,551
2019-12-08T08:30:05,42.805,6.029,CST-1368DR,7203,10093,15289,0.085,550
2019-12-08T08:33:07,42.805,6.029,CST-1368DR,7203,10095,15292,0.084,551
2019-12-08T08:36:09,42.805,6.029,CST-1368DR,7203,10094,15291,0.084,551
2019-12-08T08:39:10,42.805,6.029,CST-1368DR,7203,10095,15292,0.084,551
2019-12-08T08:42:12,42.805,6.029,CST-1368DR,7203,10095,15292,0.084,550
2019-12-08T08:45:14,42.805,6.029,CST-1368DR,7203,10095,15292,0.084,551
2019-12-08T08:48:15,42.805,6.029,CST-1368DR,7203,10093,15289,0.085,551
2019-12-08T08:51:17,42.805,6.029,CST-1368DR,7203,10093,15290,0.084,551
2019-12-08T08:54:19,42.805,6.029,CST-1368DR,7203,10094,15291,0.084,551
2019-12-08T08:57:20,42.805,6.029,CST-1368DR,7203,10095,15292,0.084,551
2019-12-08T09:00:22,42.805,6.029,CST-1368DR,7203,10095,15293,0.084,551
2019-12-08T09:03:23,42.805,6.029,CST-1368DR,7203,10094,15291,0.084,551
2019-12-08T09:06:25,42.805,6.029,CST-1368DR,7203,10095,15293,0.084,551
2019-12-08T09:09:27,42.805,6.029,CST-1368DR,7203,10095,15292,0.084,551
2019-12-08T09:12:28,42.805,6.029,CST-1368DR,7203,10095,15292,0.084,551
2019-12-08T09:15:30,42.805,6.029,CST-1368DR,7203,10072,15258,0.093,551
2019-12-08T09:18:32,42.805,6.029,CST-1368DR,7203,10091,15287,0.085,551
2019-12-08T09:21:33,42.805,6.029,CST-1368DR,7203,10091,15286,0.085,551
2019-12-08T09:24:35,42.805,6.029,CST-1368DR,7203,10093,15289,0.085,551
2019-12-08T09:27:36,42.805,6.029,CST-1368DR,7203,10095,15292,0.084,551
2019-12-08T09:30:38,42.805,6.029,CST-1368DR,7203,10095,15292,0.084,551
2019-12-08T09:33:40,42.805,6.029,CST-1368DR,7203,10095,15292,0.084,551
2019-12-08T09:36:41,42.805,6.029,CST-1368DR,7203,10095,15292,0.084,551
2019-12-08T09:39:43,42.805,6.029,CST-1368DR,7203,10095,15292,0.084,551
2019-12-08T09:42:45,42.805,6.029,CST-1368DR,7203,10095,15292,0.084,551
2019-12-08T09:45:46,42.805,6.029,CST-1368DR,7203,10095,15293,0.084,551
2019-12-08T09:48:48,42.805,6.029,CST-1368DR,7203,10095,15292,0.084,551
2019-12-08T09:51:49,42.805,6.029,CST-1368DR,7203,10094,15291,0.084,551
2019-12-08T09:54:51,42.805,6.029,CST-1368DR,7203,10090,15285,0.086,551
2019-12-08T09:57:53,42.805,6.029,CST-1368DR,7203,10093,15289,0.085,551
2019-12-08T10:00:54,42.805,6.029,CST-1368DR,7203,10093,15289,0.085,551
2019-12-08T10:03:56,42.805,6.029,CST-1368DR,7203,10095,15292,0.084,551
2019-12-08T10:06:58,42.805,6.029,CST-1368DR,7203,10094,15291,0.084,551
2019-12-08T10:09:59,42.805,6.029,CST-1368DR,7203,10095,15292,0.084,550
2019-12-08T10:13:01,42.805,6.029,CST-1368DR,7203,10093,15290,0.084,551
2019-12-08T10:16:02,42.805,6.029,CST-1368DR,7203,10090,15285,0.086,550
2019-12-08T10:19:04,42.805,6.029,CST-1368DR,7203,10093,15289,0.085,550
2019-12-08T10:22:06,42.805,6.029,CST-1368DR,7203,10094,15291,0.084,551
2019-12-08T10:25:07,42.805,6.029,CST-1368DR,7202,10094,15293,0.084,551
2019-12-08T10:28:09,42.805,6.029,CST-1368DR,7203,10094,15291,0.084,551
2019-12-08T10:31:11,42.805,6.029,CST-1368DR,7203,10092,15288,0.085,551
2019-12-08T10:34:13,42.805,6.029,CST-1368DR,7203,10092,15288,0.085,551
2019-12-08T10:37:14,42.805,6.029,CST-1368DR,7203,10092,15288,0.085,551
2019-12-08T10:40:16,42.805,6.029,CST-1368DR,7203,10095,15292,0.084,551
2019-12-08T10:43:17,42.805,6.029,CST-1368DR,7203,10094,15291,0.084,551
2019-12-08T10:46:19,42.805,6.029,CST-1368DR,7203,10094,15291,0.084,551
2019-12-08T10:49:21,42.805,6.029,CST-1368DR,7203,10093,15290,0.084,551
2019-12-08T10:52:22,42.805,6.029,CST-1368DR,7203,10093,15290,0.084,551
2019-12-08T10:55:24,42.805,6.029,CST-1368DR,7203,10092,15288,0.085,551
2019-12-08T11:20:06,42.805,6.029,CST-1368DR,7202,10093,15291,0.084,551
2019-12-08T11:23:08,42.805,6.029,CST-1368DR,7203,10092,15288,0.085,551
2019-12-08T11:26:10,42.805,6.029,CST-1368DR,7202,10093,15291,0.084,551
2019-12-08T11:29:11,42.805,6.029,CST-1368DR,7203,10095,15292,0.084,551
2019-12-08T11:32:13,42.805,6.029,CST-1368DR,7203,10093,15290,0.084,551
2019-12-08T11:35:15,42.805,6.029,CST-1368DR,7203,10094,15291,0.084,551
2019-12-08T11:38:16,42.805,6.029,CST-1368DR,7203,10094,15291,0.084,551
2019-12-08T11:41:18,42.805,6.029,CST-1368DR,7203,10093,15289,0.085,550
2019-12-08T11:44:20,42.805,6.029,CST-1368DR,7203,10093,15289,0.085,551
2019-12-08T11:47:21,42.805,6.029,CST-1368DR,7203,10090,15285,0.086,551
2019-12-08T11:50:23,42.805,6.029,CST-1368DR,7203,10093,15289,0.085,551
2019-12-08T11:53:25,42.805,6.029,CST-1368DR,7203,10094,15290,0.084,551
2019-12-08T11:56:26,42.805,6.029,CST-1368DR,7202,10091,15289,0.085,551
2019-12-08T11:59:28,42.805,6.029,CST-1368DR,7203,10093,15290,0.084,551
2019-12-08T12:02:30,42.805,6.029,CST-1368DR,7203,10094,15290,0.084,551
2019-12-08T12:05:31,42.805,6.029,CST-1368DR,7202,10090,15287,0.085,551
2019-12-08T12:08:33,42.805,6.029,CST-1368DR,7202,10094,15292,0.084,551
2019-12-08T12:11:34,42.805,6.029,CST-1368DR,7202,10093,15291,0.084,550
2019-12-08T12:14:36,42.805,6.029,CST-1368DR,7202,10094,15292,0.084,551
2019-12-08T12:17:38,42.805,6.029,CST-1368DR,7202,10094,15293,0.084,550
2019-12-08T12:20:39,42.805,6.029,CST-1368DR,7202,10094,15293,0.084,551
2019-12-08T12:23:41,42.805,6.029,CST-1368DR,7202,10095,15294,0.083,550
2019-12-08T12:26:43,42.805,6.029,CST-1368DR,7202,10095,15294,0.083,551
2019-12-08T12:29:45,42.805,6.029,CST-1368DR,7202,10094,15292,0.084,551
2019-12-08T12:32:46,42.805,6.029,CST-1368DR,7202,10094,15292,0.084,551
2019-12-08T12:35:48,42.805,6.029,CST-1368DR,7202,10094,15293,0.084,551
2019-12-08T12:38:50,42.805,6.029,CST-1368DR,7202,10093,15291,0.084,550
2019-12-08T12:41:51,42.805,6.029,CST-1368DR,7202,10094,15292,0.084,551
2019-12-08T12:44:53,42.805,6.029,CST-1368DR,7202,10094,15292,0.084,551
2019-12-08T12:47:55,42.805,6.029,CST-1368DR,7202,10093,15292,0.084,551
2019-12-08T12:50:56,42.805,6.029,CST-1368DR,7202,10091,15289,0.085,551
2019-12-08T12:53:58,42.805,6.029,CST-1368DR,7202,10093,15291,0.084,551
2019-12-08T12:56:59,42.805,6.029,CST-1368DR,7202,10093,15292,0.084,551
2019-12-08T13:00:01,42.805,6.029,CST-1368DR,7202,10094,15293,0.084,551
2019-12-08T13:03:03,42.805,6.029,CST-1368DR,7202,10089,15286,0.085,551
2019-12-08T13:06:04,42.805,6.029,CST-1368DR,7202,10092,15290,0.084,551
2019-12-08T13:09:06,42.805,6.029,CST-1368DR,7202,10090,15287,0.085,551
2019-12-08T13:12:07,42.805,6.029,CST-1368DR,7202,10090,15287,0.085,551
2019-12-08T13:15:09,42.805,6.029,CST-1368DR,7202,10090,15287,0.085,551
2019-12-08T13:18:11,42.805,6.029,CST-1368DR,7202,10093,15291,0.084,551
2019-12-08T13:21:12,42.805,6.029,CST-1368DR,7202,10092,15290,0.084,550
2019-12-08T13:24:14,42.805,6.029,CST-1368DR,7202,10093,15291,0.084,551
2019-12-08T13:27:16,42.805,6.029,CST-1368DR,7202,10092,15289,0.085,551
2019-12-08T13:30:17,42.805,6.029,CST-1368DR,7202,10091,15289,0.085,551
2019-12-08T13:33:19,42.805,6.029,CST-1368DR,7202,10091,15288,0.085,551
2019-12-08T13:36:20,42.805,6.029,CST-1368DR,7202,10092,15290,0.084,551
2019-12-08T13:39:22,42.805,6.029,CST-1368DR,7202,10093,15291,0.084,551
2019-12-08T13:42:24,42.805,6.029,CST-1368DR,7202,10091,15289,0.085,551
2019-12-08T13:45:25,42.805,6.029,CST-1368DR,7202,10091,15289,0.085,551
2019-12-08T13:48:27,42.805,6.029,CST-1368DR,7202,10089,15285,0.086,551
2019-12-08T13:51:29,42.805,6.029,CST-1368DR,7202,10093,15291,0.084,551
2019-12-08T13:54:30,42.805,6.029,CST-1368DR,7202,10091,15288,0.085,551
2019-12-08T13:57:32,42.805,6.029,CST-1368DR,7202,10092,15289,0.085,551
2019-12-08T14:00:33,42.805,6.029,CST-1368DR,7202,10092,15290,0.084,551
2019-12-08T14:03:35,42.805,6.029,CST-1368DR,7202,10091,15288,0.085,551
2019-12-08T14:06:37,42.805,6.029,CST-1368DR,7202,10093,15291,0.084,551
2019-12-08T14:09:38,42.805,6.029,CST-1368DR,7202,10093,15291,0.084,551
2019-12-08T14:12:40,42.805,6.029,CST-1368DR,7202,10092,15290,0.084,551
2019-12-08T14:15:42,42.805,6.029,CST-1368DR,7202,10093,15291,0.084,551
2019-12-08T14:18:43,42.805,6.029,CST-1368DR,7202,10093,15291,0.084,551
2019-12-08T14:21:45,42.805,6.029,CST-1368DR,7201,10093,15293,0.084,551
2019-12-08T14:24:46,42.805,6.029,CST-1368DR,7201,10093,15293,0.084,551
2019-12-08T14:27:48,42.805,6.029,CST-1368DR,7201,10092,15292,0.084,551
2019-12-08T14:30:50,42.805,6.029,CST-1368DR,7201,10090,15289,0.085,551
2019-12-08T14:33:51,42.805,6.029,CST-1368DR,7201,10090,15288,0.085,551
2019-12-08T14:36:53,42.805,6.029,CST-1368DR,7201,10086,15282,0.086,551
2019-12-08T14:39:55,42.805,6.029,CST-1368DR,7201,10088,15286,0.085,551
2019-12-08T14:42:56,42.805,6.029,CST-1368DR,7201,10091,15290,0.084,551
2019-12-08T14:45:58,42.805,6.029,CST-1368DR,7201,10083,15278,0.088,551
2019-12-08T14:49:00,42.805,6.029,CST-1368DR,7201,10089,15288,0.085,551
2019-12-08T14:52:01,42.805,6.029,CST-1368DR,7201,10092,15292,0.084,551
2019-12-08T14:55:03,42.805,6.029,CST-1368DR,7201,10092,15292,0.084,551
2019-12-08T14:58:04,42.805,6.029,CST-1368DR,7201,10093,15293,0.084,551
2019-12-08T15:01:06,42.805,6.029,CST-1368DR,7201,10092,15292,0.084,551
2019-12-08T15:04:08,42.805,6.029,CST-1368DR,7201,10092,15292,0.084,551
2019-12-08T15:07:09,42.805,6.029,CST-1368DR,7201,10092,15292,0.084,551
2019-12-08T15:10:11,42.805,6.029,CST-1368DR,7201,10090,15289,0.085,551
2019-12-08T15:13:13,42.805,6.029,CST-1368DR,7201,10093,15293,0.084,551
2019-12-08T15:16:14,42.805,6.029,CST-1368DR,7201,10090,15289,0.085,551
2019-12-08T15:19:16,42.805,6.029,CST-1368DR,7201,10092,15291,0.084,551
2019-12-08T15:22:18,42.805,6.029,CST-1368DR,7201,10092,15292,0.084,551
2019-12-08T15:25:19,42.805,6.029,CST-1368DR,7201,10092,15292,0.084,551
2019-12-08T15:28:21,42.805,6.029,CST-1368DR,7201,10091,15291,0.084,551
2019-12-08T15:31:23,42.805,6.029,CST-1368DR,7201,10092,15292,0.084,551
2019-12-08T15:34:24,42.805,6.029,CST-1368DR,7201,10092,15292,0.084,551
2019-12-08T15:37:26,42.805,6.029,CST-1368DR,7201,10092,15292,0.084,551
2019-12-08T15:40:27,42.805,6.029,CST-1368DR,7201,10090,15289,0.085,551
2019-12-08T15:43:29,42.805,6.029,CST-1368DR,7201,10093,15293,0.084,550
2019-12-08T15:46:31,42.805,6.029,CST-1368DR,7201,10092,15291,0.084,551
2019-12-08T15:49:32,42.805,6.029,CST-1368DR,7201,10091,15290,0.084,551
2019-12-08T15:52:34,42.805,6.029,CST-1368DR,7201,10092,15292,0.084,551
2019-12-08T15:55:36,42.805,6.029,CST-1368DR,7201,10093,15293,0.084,551
2019-12-08T15:58:37,42.805,6.029,CST-1368DR,7201,10091,15290,0.084,551
2019-12-08T16:01:39,42.805,6.029,CST-1368DR,7201,10092,15292,0.084,551
2019-12-08T16:04:40,42.805,6.029,CST-1368DR,7201,10089,15287,0.085,551
2019-12-08T16:07:42,42.805,6.029,CST-1368DR,7201,10091,15290,0.084,551
2019-12-08T16:10:44,42.805,6.029,CST-1368DR,7201,10090,15289,0.085,551
2019-12-08T16:13:45,42.805,6.029,CST-1368DR,7201,10091,15291,0.084,550
2019-12-08T16:16:47,42.805,6.029,CST-1368DR,7201,10090,15289,0.085,551
2019-12-08T16:19:49,42.805,6.029,CST-1368DR,7201,10091,15291,0.084,551
2019-12-08T16:22:50,42.805,6.029,CST-1368DR,7201,10091,15290,0.084,551
2019-12-08T16:25:52,42.805,6.029,CST-1368DR,7201,10090,15289,0.085,551
2019-12-08T16:28:53,42.805,6.029,CST-1368DR,7201,10092,15292,0.084,551
2019-12-08T16:31:55,42.805,6.029,CST-1368DR,7201,10093,15293,0.084,551
2019-12-08T16:34:57,42.805,6.029,CST-1368DR,7201,10092,15292,0.084,551
2019-12-08T16:37:58,42.805,6.029,CST-1368DR,7201,10092,15292,0.084,551
2019-12-08T16:41:00,42.805,6.029,CST-1368DR,7201,10093,15293,0.084,551
2019-12-08T16:44:02,42.805,6.029,CST-1368DR,7201,10093,15293,0.084,551
2019-12-08T16:47:03,42.805,6.029,CST-1368DR,7201,10092,15291,0.084,551
2019-12-08T16:50:05,42.805,6.029,CST-1368DR,7201,10091,15291,0.084,551
2019-12-08T16:53:07,42.805,6.029,CST-1368DR,7201,10091,15290,0.084,551
2019-12-08T16:56:08,42.805,6.029,CST-1368DR,7201,10088,15285,0.086,550
2019-12-08T16:59:10,42.805,6.029,CST-1368DR,7201,10090,15288,0.085,551